Regional Weather Roundup
Issued by NWS

Home | Current Version | Previous Version | Graphics & Text | Print | Product List | Glossary On
Versions: 1 2 3 4 5 6 7 8 9 10 11 12 13 14 15 16 17 18 19 20 21 22 23 24 25 26 27 28 29 30 31 32 33 34 35 36 37 38 39 40 41 42 43 44 45 46 47 48 49 50
000
ASUS43 KOAX 011302
RWRNE

WEATHER ROUNDUP FOR NEBRASKA
NATIONAL WEATHER SERVICE OMAHA NE
700 AM CST WED MAR 01 2017

NOTES: SATELLITE DATA IS BEING USED TO AUGMENT CLOUD COVER ABOVE
       12000 FEET.
       "FAIR" INDICATES FEW OR NO CLOUDS BELOW 12,000 FEET WITH NO
       SIGNIFICANT WEATHER AND/OR OBSTRUCTIONS TO VISIBILITY.

  * THESE STATIONS DO NOT REPORT WEATHER SUCH AS RAIN...SNOW OR FOG.

NEZ001>004-019>022-054>056-011400-
NEBRASKA PANHANDLE

CITY           SKY/WX    TMP DP  RH WIND       PRES   REMARKS
SCOTTSBLUFF    CLEAR     19   9  65 W8        30.11R WCI   9
ALLIANCE       CLEAR     17   9  70 NW20      30.05R WCI   1
CHADRON        CLOUDY    24  15  68 W20       30.09R WCI  10
KIMBALL        CLEAR     23  13  65 NW16G22   30.08R WCI  10
SIDNEY         CLEAR     23  11  60 NW18      30.09R WCI   9
$$

NEZ057>060-069>072-079>082-011400-
SOUTHWEST NEBRASKA

CITY           SKY/WX    TMP DP  RH WIND       PRES   REMARKS
NORTH PLATTE   CLEAR     26  14  60 W14       30.04R WCI  14
IMPERIAL       CLEAR     28  13  53 NW16      30.08R WCI  16
LEXINGTON      CLEAR     24  17  75 NW8       30.03R WCI  15
MCCOOK         CLEAR     26  15  63 NW10      30.07R WCI  16
OGALLALA       CLEAR     29  15  55 NW23      30.07R WCI  15
$$

NEZ005>010-023>029-035>040-094-011400-
NORTH CENTRAL NEBRASKA

CITY           SKY/WX    TMP DP  RH WIND       PRES   REMARKS
VALENTINE      CLEAR     18  13  80 W14       29.99R WCI   4
AINSWORTH      CLEAR     19  17  92 W9        29.98S WCI   8
BROKEN BOW     CLEAR     23  15  71 NW13      29.99R WCI  11
O`NEILL        CLOUDY    27  24  86 NW12      29.99R WCI  17
ORD            MOCLDY    25  21  85 W13       30.00R WCI  14
THEDFORD       CLEAR     22  15  75 NW12      30.01R WCI  10
$$

NEZ041-046>049-061>064-073>077-083>087-011400-
SOUTH CENTRAL NEBRASKA

CITY           SKY/WX    TMP DP  RH WIND       PRES   REMARKS
GRAND ISLAND   CLEAR     24  22  91 W8        30.02R WCI  15
AURORA         CLEAR     26  23  90 NW12      30.00R WCI  15
HASTINGS       CLEAR     25  20  81 NW13      30.01R WCI  14
HEBRON         CLEAR     28  24  83 NW10      30.02R WCI  19
HOLDREGE       CLEAR     25  17  70 NW10      30.02R WCI  15
KEARNEY *      CLEAR     25  16  68 W10       30.02R WCI  15
YORK           CLEAR     27  25  93 NW12      29.99R WCI  16
$$

NEZ011>018-030>034-042>045-011400-
NORTHEAST NEBRASKA

CITY           SKY/WX    TMP DP  RH WIND       PRES   REMARKS
NORFOLK        MOCLDY    29  23  78 NW15      29.95R WCI  18
ALBION         CLOUDY    30  24  79 NW20G28   29.98R WCI  17
BLAIR          CLOUDY    32  29  87 NW18G29   29.92R WCI  21
FREMONT        CLOUDY    32  28  85 NW17      29.96R WCI  21
TEKAMAH        CLOUDY    32  26  78 NW22G35   29.93R WCI  19
WAYNE          CLOUDY    28  25  86 NW18G24   29.94R WCI  16
$$

NEZ050>053-065>068-078-088>093-011400-
SOUTHEAST NEBRASKA

CITY           SKY/WX    TMP DP  RH WIND       PRES   REMARKS
LINCOLN        CLEAR     32  24  72 NW13      29.98R WCI  22
OMAHA EPPLEY   CLOUDY    34  27  75 NW16      29.93R WCI  24
BEATRICE       CLOUDY    32  26  78 NW23G29   29.98R WCI  19
FALLS CITY     CLOUDY    35  27  72 NW21      29.94R WCI  24
NEBRASKA CITY  MOCLDY    33  26  75 NW15G22   29.93S WCI  22
PLATTSMOUTH    CLOUDY    33  27  78 NW12G24   29.92R WCI  24
$$

NEZ044-045-051>053-067-011400-
OMAHA AREA

CITY           SKY/WX    TMP DP  RH WIND       PRES   REMARKS
OMAHA EPPLEY   CLOUDY    34  27  75 NW16      29.93R WCI  24
BLAIR          CLOUDY    32  29  87 NW18G29   29.92R WCI  21
FREMONT        CLOUDY    32  28  85 NW17      29.96R WCI  21
MILLARD        CLOUDY    35  30  81 NW21G26   29.94R WCI  24
OFFUTT AFB     CLOUDY    33  28  80 NW18G25   29.92R WCI  22
PLATTSMOUTH    CLOUDY    33  27  78 NW12G24   29.92R WCI  24
WAHOO          CLOUDY    32  27  83 NW17G26   29.96R WCI  21
$$



USA.gov is the U.S. government's official web portal to all federal, state and local government web resources and services.